Temperature
8 9 9 9 9 9 10 10 10 10 8 8 8 9 9 6 5 5 5 4 3 3 3 3 4 4 4 4 4 4 4 5 5 5 5 5 5 5 5 5 5 5 6 6
9 8 8 8 8 8 8 9 9 9 7 7 8 8 8 7 5 5 4 4 3 2 2 2 3 3 4 4 4 4 4 4 4 4 4 4 4 5 5 5 5 5 5 5
9 8 7 7 7 7 8 8 8 8 7 6 6 9 9 6 4 3 3 3 2 2 2 2 2 3 3 3 4 4 3 4 4 3 3 3 3 4 4 4 4 4 4 4
7 6 6 7 7 7 8 7 7 7 7 8 7 9 10 7 5 4 3 2 2 1 1 1 2 2 2 3 3 3 3 3 3 3 3 3 3 3 3 3 4 3 4 4
6 5 6 6 6 6 7 6 6 6 6 7 6 7 10 6 6 5 4 2 2 1 1 1 1 2 2 2 2 2 2 2 2 2 2 2 2 2 2 3 3 3 3 3
5 5 5 5 5 5 5 5 5 5 6 6 7 7 9 8 6 6 4 2 1 1 1 1 1 1 1 1 2 2 2 1 2 2 2 2 2 2 2 2 2 2 2 2
6 5 4 4 5 5 5 6 7 7 7 8 6 6 8 7 4 4 3 2 1 0 0 1 1 1 1 1 1 1 1 1 1 1 1 1 1 1 1 1 1 1 1 1
6 6 5 4 5 5 5 6 7 8 9 9 6 6 8 4 2 2 1 1 0 0 0 0 0 0 0 1 1 1 0 0 0 0 0 0 0 0 0 0 0 0 0 1
6 6 4 3 4 5 5 5 5 6 5 5 8 7 6 3 2 1 1 0 0 -0 -0 -0 -0 -0 -0 -0 0 -0 -0 -0 -0 -0 -0 -0 -0 -0 -0 -0 -0 -0 -0 -0
5 5 3 3 3 3 4 4 4 5 5 7 8 7 8 5 4 2 1 0 -0 -0 -1 -1 -1 -1 -1 -1 -1 -1 -1 -1 -1 -1 -1 -1 -1 -1 -1 -1 -1 -1 -1 -1
3 4 3 3 3 4 3 3 4 5 5 6 7 8 6 5 3 2 1 0 -0 -1 -1 -1 -1 -1 -1 -1 -1 -2 -2 -2 -2 -2 -2 -2 -2 -2 -2 -2 -2 -2 -2 -2
3 3 4 3 2 2 3 3 4 4 4 3 5 7 2 2 1 1 0 -1 -1 -1 -1 -1 -1 -2 -2 -2 -2 -2 -2 -2 -2 -2 -3 -2 -3 -3 -2 -2 -2 -2 -2 -2
2 2 4 4 2 1 1 1 2 2 3 3 4 6 1 -0 -0 -1 -1 -1 -1 -2 -2 -2 -2 -2 -2 -3 -3 -3 -3 -3 -3 -3 -3 -3 -3 -3 -3 -3 -3 -3 -3 -3
2 1 3 5 5 3 1 1 0 1 2 3 3 5 3 1 0 -1 -1 -2 -2 -3 -3 -3 -3 -3 -3 -3 -3 -3 -3 -3 -4 -4 -4 -4 -4 -4 -4 -4 -4 -4 -4 -4
1 1 1 2 1 1 1 1 0 0 2 2 3 3 3 2 -0 -1 -2 -3 -4 -4 -4 -4 -4 -4 -4 -4 -4 -4 -4 -4 -4 -4 -5 -4 -4 -4 -5 -5 -4 -4 -4 -5
-0 0 -0 -0 0 -0 -1 0 0 0 0 1 1 1 1 -1 -2 -3 -4 -4 -5 -5 -5 -5 -5 -5 -5 -5 -5 -5 -5 -5 -5 -5 -5 -5 -5 -5 -5 -5 -5 -5 -5 -5
-1 -1 -0 1 -1 -1 1 0 -1 -1 -1 -1 0 1 -1 -2 -3 -4 -5 -5 -5 -5 -5 -6 -6 -6 -6 -6 -6 -6 -6 -6 -6 -6 -6 -6 -6 -6 -6 -6 -6 -6 -6 -6
-2 -1 -1 -0 -1 0 2 -2 -1 -2 -2 -2 -2 -2 -3 -3 -5 -6 -6 -6 -6 -6 -6 -6 -6 -6 -6 -7 -7 -6 -6 -6 -6 -7 -7 -7 -7 -7 -7 -7 -7 -7 -7 -7
-2 -1 -1 -1 0 1 1 -2 -3 -3 -2 -3 -4 -4 -5 -6 -6 -6 -6 -6 -6 -6 -7 -7 -7 -7 -7 -7 -7 -7 -7 -7 -7 -7 -7 -7 -7 -7 -7 -7 -7 -7 -8 -8
-4 -3 -1 -1 -0 1 1 -4 -5 -3 -2 -4 -5 -5 -5 -6 -3 -3 -6 -7 -7 -7 -7 -7 -8 -8 -8 -8 -8 -8 -8 -8 -8 -8 -8 -8 -8 -8 -8 -8 -8 -8 -8 -8
-4 -3 -2 -1 -1 0 -3 -6 -5 -2 -1 -5 -6 -6 -6 -6 -5 -6 -7 -7 -8 -8 -8 -8 -8 -8 -9 -9 -9 -9 -9 -9 -9 -9 -9 -9 -9 -9 -9 -9 -9 -9 -9 -9
-3 -3 -3 -2 -2 -1 -6 -6 -4 -3 -6 -6 -6 -6 -7 -7 -7 -8 -8 -8 -8 -9 -9 -9 -9 -9 -9 -10 -9 -9 -9 -10 -10 -10 -10 -10 -10 -10 -10 -10 -10 -10 -10 -10
-4 -3 -3 -3 -2 -5 -7 -7 -7 -7 -7 -7 -7 -7 -7 -8 -8 -9 -9 -9 -9 -9 -9 -9 -10 -10 -10 -10 -10 -10 -10 -10 -10 -10 -10 -10 -10 -10 -11 -11 -11 -11 -11 -11
-6 -7 -5 -6 -5 -7 -8 -8 -8 -7 -7 -7 -7 -8 -8 -8 -9 -9 -10 -10 -10 -10 -10 -10 -10 -10 -10 -11 -11 -11 -11 -11 -11 -11 -11 -11 -11 -11 -11 -11 -11 -12 -12 -12
-6 -8 -7 -6 -7 -8 -9 -8 -8 -8 -8 -8 -8 -8 -9 -9 -9 -10 -10 -10 -11 -11 -11 -11 -11 -11 -11 -11 -11 -12 -12 -12 -12 -12 -12 -12 -12 -12 -12 -12 -12 -12 -12 -13
-9 -8 -7 -5 -6 -7 -8 -8 -8 -8 -9 -9 -9 -9 -9 -10 -10 -10 -11 -11 -11 -11 -11 -11 -12 -12 -12 -12 -12 -12 -12 -12 -12 -13 -13 -13 -13 -13 -13 -13 -13 -13 -13 -13
Wind_Speed
1 3 6 8 9 6 5 7 9 7 3 6 13 16 13 10 11 11 11 10 9 7 6 5 4 3 2 2 1 1 2 2 2 2 2 2 1 1 1 2 2 1 1 1
3 6 6 4 5 6 7 9 9 6 3 6 10 16 14 11 13 12 11 10 9 8 6 5 4 4 3 3 2 1 2 2 2 2 2 1 1 1 1 1 1 1 1 1
6 2 3 5 5 7 9 10 10 8 5 5 8 12 11 8 10 10 10 10 9 9 7 6 5 5 4 3 3 2 2 2 2 2 2 2 2 1 1 0 0 1 0 1
4 3 3 5 6 7 9 6 8 8 7 6 4 8 8 7 8 10 10 10 10 8 7 6 5 5 5 4 3 3 2 2 2 2 3 4 3 2 2 2 1 1 0 0
3 2 3 6 6 6 4 2 5 6 7 8 7 8 9 5 8 11 10 10 9 8 7 6 6 5 5 4 3 2 2 1 1 2 4 5 4 3 2 2 2 2 1 1
3 2 3 3 2 3 2 2 3 3 5 8 9 10 9 6 7 6 8 8 8 7 6 6 5 4 4 3 3 2 2 2 1 1 3 4 4 3 3 3 3 2 1 1
4 4 3 3 3 3 3 4 4 5 6 8 5 8 10 3 4 4 5 6 7 7 6 5 5 4 3 3 3 3 3 2 2 2 2 3 4 4 4 3 3 3 2 2
5 5 5 4 5 5 6 6 6 6 7 7 6 9 7 3 3 3 4 4 5 6 6 5 5 4 4 3 3 3 3 3 2 3 2 2 3 3 3 3 3 3 3 3
5 4 1 2 2 4 5 7 5 5 6 8 8 8 7 5 5 5 5 5 5 6 6 5 4 4 4 3 3 3 3 3 3 3 2 2 3 3 3 3 3 3 3 3
4 4 2 1 2 3 4 4 4 6 6 9 9 9 7 5 6 6 7 7 6 5 5 5 4 4 4 3 3 3 3 3 3 3 2 2 3 3 3 3 3 3 3 3
4 5 2 3 6 7 6 6 6 5 5 6 8 7 2 5 4 6 7 6 6 5 5 5 4 4 4 3 3 3 3 3 3 3 3 3 3 3 3 3 3 4 3 3
4 4 5 5 2 2 6 8 9 7 7 6 8 8 2 2 2 3 4 4 5 5 5 4 3 3 4 4 3 3 3 3 3 3 3 3 3 2 2 3 3 3 3 4
5 4 4 3 3 4 5 7 8 6 5 8 10 10 1 1 3 3 4 4 4 4 3 3 3 3 3 3 3 3 3 3 3 3 3 2 3 3 3 3 3 3 3 3
5 6 9 10 6 4 6 8 10 9 8 11 15 16 8 6 6 6 5 5 4 3 3 3 3 3 3 3 3 3 3 3 3 3 3 3 3 3 3 3 2 3 3 3
5 7 9 12 9 7 10 12 13 15 16 14 15 16 16 9 7 6 5 4 3 3 3 3 3 3 2 2 2 2 2 2 3 3 3 3 3 3 3 2 2 2 3 3
5 5 5 8 8 9 12 15 16 17 16 18 19 18 11 6 4 4 5 4 4 4 3 3 3 3 2 2 2 2 2 2 2 2 3 3 2 2 2 2 2 2 3 3
6 6 5 7 5 7 12 12 14 10 11 11 15 13 4 4 5 5 4 4 4 4 3 3 2 2 2 2 2 2 2 2 2 2 2 2 2 2 2 2 2 2 3 3
7 6 4 4 3 10 5 1 6 9 10 10 10 6 5 6 3 2 3 3 3 3 2 2 2 2 2 2 2 2 2 1 1 2 2 2 2 2 2 2 2 3 3 3
6 6 4 4 6 10 5 2 3 6 7 7 10 8 5 2 2 3 2 3 3 2 2 2 1 1 1 1 2 1 1 1 1 2 3 3 3 3 2 2 3 3 3 3
2 4 5 5 6 8 2 2 1 2 5 3 6 7 4 2 4 3 1 1 1 0 1 1 1 1 1 1 1 1 1 2 2 3 3 3 3 3 3 3 4 4 3 4
4 4 8 9 9 8 1 1 3 5 3 0 4 5 5 5 4 0 2 1 1 1 1 1 1 1 1 1 1 1 1 2 3 4 3 3 3 3 3 3 3 3 3 3
7 7 7 6 8 8 3 5 5 4 2 1 2 3 4 4 1 1 1 1 1 1 1 1 1 1 2 1 1 1 2 3 3 3 3 3 3 3 3 3 3 3 3 3
7 6 4 7 6 1 4 4 2 2 2 2 2 2 3 3 3 2 2 1 1 0 1 1 1 1 2 2 1 2 3 3 3 3 3 3 3 3 3 3 3 3 3 3
4 2 4 5 6 4 4 4 4 3 3 2 2 2 3 4 3 3 2 2 1 1 1 1 1 1 2 2 2 2 3 3 2 3 3 3 3 3 3 3 3 3 3 3
3 4 4 6 5 4 5 5 5 4 2 2 1 1 3 3 3 3 2 2 2 1 1 1 1 2 3 3 3 3 3 2 3 3 3 3 3 3 3 3 3 4 4 4
3 5 5 6 4 5 4 2 2 2 2 2 2 1 1 2 2 2 2 2 1 1 1 1 2 2 3 3 3 3 3 3 3 3 3 3 3 3 3 4 4 5 6 7
Wind_Direction
160 196 217 219 221 242 242 240 251 255 244 240 249 259 257 232 224 226 224 220 219 222 219 206 199 197 189 176 155 142 161 147 132 138 146 144 124 88 69 55 41 36 70 97
182 231 242 234 219 225 239 253 262 265 254 256 270 269 262 235 228 228 227 225 222 223 220 211 201 200 200 194 183 179 189 177 166 170 175 174 152 125 75 59 37 17 78 110
220 250 224 207 218 231 240 249 257 265 279 249 281 272 244 226 222 227 229 229 226 220 220 217 212 210 208 208 205 204 211 205 189 180 163 135 123 116 152 140 4 338 355 103
239 250 222 226 236 236 252 248 252 258 266 266 261 279 255 220 223 225 228 226 226 221 218 219 218 216 217 217 208 204 213 211 203 181 184 180 189 203 221 216 210 240 249 188
232 227 227 237 247 236 255 273 252 254 255 265 239 252 265 213 237 233 227 224 220 218 215 216 221 220 219 215 201 197 204 204 205 202 197 196 202 209 205 203 201 199 207 215
254 251 258 253 268 228 203 246 252 238 243 253 236 232 265 230 236 236 222 217 216 213 213 215 221 220 214 206 191 188 191 193 199 215 214 204 198 198 196 203 202 206 209 224
246 235 230 229 219 195 213 234 249 239 231 247 203 230 253 246 228 236 223 211 210 207 206 209 210 206 206 201 192 192 193 198 203 209 218 218 203 201 207 209 207 212 220 236
250 250 208 210 221 217 213 222 236 254 258 263 223 239 250 221 228 235 227 214 208 207 206 210 212 206 207 204 199 197 202 207 208 211 220 224 219 210 214 221 219 220 229 239
236 250 146 220 251 212 202 219 242 258 271 270 250 250 258 221 232 228 219 209 211 213 212 212 212 213 213 208 208 210 210 214 218 218 223 224 225 227 221 222 223 225 236 246
221 251 249 256 220 224 240 197 192 217 248 258 260 250 246 229 233 224 221 221 222 216 213 212 212 216 217 215 214 216 214 216 221 221 223 231 233 238 239 226 223 225 231 239
212 229 237 214 215 212 187 201 217 226 242 250 266 258 240 238 235 225 225 225 217 215 216 216 219 218 215 211 212 218 219 220 221 223 226 233 232 234 239 239 232 230 230 233
199 223 247 237 233 278 226 219 208 227 236 236 261 268 82 255 251 240 236 228 218 218 218 217 218 217 215 212 214 218 221 224 228 224 225 234 232 231 241 251 246 237 234 234
170 198 248 245 209 198 222 221 220 232 248 240 248 258 97 304 281 260 251 243 228 217 218 221 221 223 225 223 219 220 221 226 230 225 222 233 231 235 248 257 261 253 245 243
184 214 232 254 278 222 232 228 218 216 235 247 246 261 268 275 271 266 256 253 247 232 224 231 238 238 239 245 231 228 230 227 226 223 223 232 236 239 253 259 262 268 255 246
198 236 242 258 266 253 251 246 227 225 235 246 259 261 270 267 261 260 258 262 255 250 245 242 244 254 251 259 256 242 242 238 229 225 230 242 246 247 246 247 264 276 269 257
203 233 243 261 256 256 261 254 239 236 242 248 261 268 277 275 265 257 252 244 240 251 253 248 248 261 258 261 269 259 251 249 235 230 246 255 241 237 240 253 267 279 283 281
197 200 227 262 271 279 260 243 225 226 230 234 247 259 270 258 249 245 242 229 239 253 252 245 247 262 269 272 277 272 267 257 237 241 263 280 263 252 256 265 276 280 282 284
196 197 221 258 257 247 257 122 216 229 245 235 247 264 264 267 274 270 243 239 253 260 255 255 258 277 294 301 302 303 292 256 244 265 286 298 294 281 281 274 271 277 280 281
212 198 210 222 251 269 268 205 193 220 260 238 242 257 272 310 292 274 259 238 244 252 267 273 271 275 302 316 317 326 319 296 282 288 295 300 294 283 280 277 281 282 286 286
180 206 216 219 241 256 269 115 157 197 261 242 223 233 233 199 253 271 108 175 232 338 3 350 7 13 354 342 346 346 317 306 297 298 301 300 293 277 274 275 281 284 284 284
180 203 220 228 241 261 316 142 165 212 275 283 215 219 209 214 248 33 118 107 91 58 41 38 46 9 340 341 345 322 309 303 305 308 307 304 297 284 279 282 284 286 287 288
189 193 206 211 228 249 135 150 199 251 339 259 233 223 216 220 202 174 163 148 121 67 35 33 22 351 345 337 318 310 308 313 316 313 309 306 304 298 293 290 291 290 290 288
210 208 205 206 223 319 162 196 260 311 277 272 250 228 197 196 206 209 214 210 212 264 329 341 336 332 334 335 324 305 313 321 317 312 309 309 312 306 300 293 291 291 289 288
225 240 225 240 252 257 240 261 283 276 266 275 243 208 195 201 207 212 218 224 244 277 307 317 326 320 326 337 330 311 312 313 307 305 308 310 312 311 303 294 286 283 282 285
225 188 219 247 269 284 265 258 265 274 283 286 267 222 209 198 208 215 227 236 245 270 303 309 303 305 313 324 323 321 317 314 305 302 302 303 303 303 298 289 281 281 277 281
206 205 217 247 250 243 265 267 254 244 246 231 212 217 192 197 211 215 232 246 253 272 295 302 302 303 310 315 314 317 317 309 300 299 301 300 300 298 296 293 293 287 287 290
Height
1500 1499 1496 1496 1498 1497 1496 1495 1493 1494 1500 1501 1495 1491 1492 1495 1497 1497 1498 1499 1500 1500 1501 1502 1502 1503 1504 1504 1505 1506 1507 1508 1509 1509 1510 1511 1513 1514 1515 1516 1516 1517 1518 1518
1498 1497 1498 1499 1500 1500 1498 1496 1493 1495 1501 1499 1493 1488 1486 1489 1491 1492 1494 1494 1496 1497 1497 1498 1499 1500 1500 1501 1502 1503 1503 1504 1505 1506 1508 1508 1509 1510 1512 1512 1513 1514 1515 1515
1494 1498 1499 1500 1499 1498 1497 1496 1494 1495 1498 1499 1496 1479 1478 1484 1487 1489 1490 1491 1492 1493 1493 1494 1495 1496 1497 1498 1499 1499 1500 1501 1502 1503 1504 1505 1506 1507 1508 1509 1510 1511 1511 1512
1498 1499 1500 1498 1497 1497 1493 1496 1497 1498 1496 1488 1494 1477 1467 1477 1482 1484 1485 1487 1487 1489 1490 1491 1492 1493 1494 1495 1496 1496 1497 1498 1499 1500 1501 1501 1502 1503 1504 1505 1506 1507 1507 1508
1497 1499 1498 1497 1497 1498 1495 1499 1498 1497 1495 1492 1490 1487 1464 1476 1475 1477 1480 1482 1483 1485 1486 1487 1488 1489 1490 1491 1492 1493 1494 1495 1495 1496 1497 1498 1499 1499 1500 1501 1502 1502 1503 1504
1498 1500 1499 1498 1499 1499 1500 1499 1498 1498 1494 1487 1480 1481 1461 1465 1469 1471 1475 1478 1480 1482 1483 1484 1485 1486 1487 1488 1489 1490 1490 1491 1492 1492 1493 1494 1495 1495 1496 1497 1497 1498 1499 1500
1496 1497 1498 1499 1497 1499 1498 1495 1488 1483 1481 1470 1479 1479 1463 1466 1470 1472 1474 1476 1477 1479 1480 1481 1482 1483 1483 1484 1485 1486 1486 1487 1488 1488 1489 1490 1491 1491 1492 1492 1493 1493 1494 1495
1491 1488 1494 1496 1494 1494 1494 1492 1486 1478 1467 1462 1478 1471 1459 1469 1471 1472 1473 1474 1475 1476 1477 1479 1479 1480 1480 1481 1481 1482 1483 1483 1484 1484 1485 1486 1487 1487 1488 1488 1489 1489 1489 1490
1489 1488 1494 1495 1495 1494 1493 1491 1491 1488 1487 1481 1461 1462 1462 1467 1469 1470 1471 1472 1473 1474 1475 1476 1476 1477 1477 1478 1478 1479 1479 1480 1480 1480 1481 1482 1482 1483 1484 1484 1485 1485 1485 1486
1492 1491 1493 1495 1496 1495 1494 1491 1492 1488 1480 1468 1456 1455 1451 1459 1463 1467 1469 1469 1470 1471 1472 1473 1474 1474 1475 1475 1475 1476 1476 1476 1476 1477 1477 1478 1478 1479 1480 1480 1480 1480 1481 1482
1493 1492 1492 1494 1491 1487 1493 1493 1489 1483 1480 1470 1457 1448 1455 1457 1460 1463 1465 1466 1467 1469 1469 1470 1470 1471 1472 1472 1472 1472 1472 1472 1473 1473 1474 1474 1475 1475 1475 1476 1476 1476 1476 1477
1492 1490 1486 1487 1491 1492 1488 1485 1485 1481 1478 1479 1466 1454 1461 1461 1462 1463 1464 1465 1466 1466 1467 1467 1467 1467 1468 1468 1468 1468 1468 1469 1469 1469 1470 1470 1470 1471 1471 1471 1471 1471 1472 1472
1491 1491 1483 1478 1488 1493 1490 1487 1486 1484 1480 1474 1466 1454 1462 1462 1462 1463 1463 1463 1463 1464 1464 1464 1464 1464 1464 1464 1464 1464 1465 1465 1465 1465 1465 1466 1466 1466 1466 1466 1467 1467 1467 1467
1488 1487 1481 1468 1466 1476 1482 1484 1485 1483 1476 1467 1461 1451 1456 1459 1460 1461 1461 1461 1461 1461 1461 1461 1461 1461 1461 1461 1461 1461 1461 1461 1461 1461 1461 1461 1461 1461 1462 1462 1462 1462 1463 1462
1486 1483 1481 1477 1477 1479 1476 1476 1478 1477 1469 1464 1453 1454 1451 1455 1458 1459 1459 1459 1458 1458 1458 1458 1458 1458 1457 1457 1457 1457 1457 1457 1457 1456 1456 1456 1457 1457 1457 1457 1457 1457 1458 1458
1483 1482 1482 1478 1477 1478 1475 1469 1469 1469 1467 1463 1458 1454 1452 1455 1456 1457 1456 1456 1456 1455 1455 1455 1455 1454 1454 1454 1453 1453 1453 1453 1453 1453 1453 1453 1452 1452 1452 1452 1453 1453 1453 1453
1480 1481 1479 1469 1475 1475 1462 1458 1461 1462 1460 1459 1454 1450 1453 1454 1454 1454 1453 1453 1453 1453 1452 1452 1452 1452 1451 1451 1451 1450 1450 1449 1449 1449 1449 1448 1448 1448 1448 1448 1449 1449 1449 1448
1477 1477 1476 1471 1473 1464 1448 1457 1456 1456 1455 1456 1453 1452 1453 1453 1453 1452 1452 1451 1450 1450 1450 1450 1449 1449 1449 1448 1448 1447 1447 1447 1446 1446 1445 1445 1445 1444 1444 1445 1445 1445 1445 1444
1473 1474 1472 1470 1461 1448 1449 1455 1457 1456 1452 1451 1451 1451 1452 1452 1451 1450 1449 1449 1449 1449 1448 1448 1447 1447 1446 1446 1445 1445 1444 1444 1443 1442 1442 1442 1441 1441 1441 1440 1441 1441 1440 1439
1474 1473 1470 1468 1459 1444 1443 1455 1456 1457 1449 1447 1448 1448 1449 1450 1448 1446 1447 1447 1447 1446 1446 1445 1445 1444 1444 1443 1442 1442 1441 1441 1440 1439 1439 1438 1438 1437 1437 1437 1437 1436 1436 1435
1472 1471 1468 1462 1456 1445 1452 1455 1456 1451 1442 1446 1445 1445 1447 1447 1446 1446 1445 1445 1445 1445 1444 1444 1443 1442 1442 1441 1440 1439 1439 1438 1438 1437 1436 1435 1435 1434 1434 1433 1433 1432 1432 1431
1461 1462 1463 1460 1456 1447 1453 1454 1452 1445 1445 1445 1444 1444 1444 1444 1444 1444 1444 1443 1443 1443 1442 1442 1441 1440 1440 1439 1438 1437 1436 1436 1435 1434 1433 1432 1431 1431 1430 1430 1429 1428 1428 1427
1457 1455 1451 1452 1448 1448 1449 1447 1446 1445 1444 1443 1443 1442 1442 1442 1442 1442 1442 1442 1441 1441 1440 1440 1439 1438 1438 1437 1436 1435 1434 1433 1432 1431 1430 1429 1428 1427 1427 1426 1425 1425 1424 1423
1455 1456 1454 1452 1446 1447 1447 1445 1444 1443 1442 1441 1441 1441 1441 1440 1440 1440 1440 1440 1440 1439 1438 1438 1437 1436 1435 1435 1434 1433 1432 1431 1430 1429 1427 1426 1425 1424 1424 1423 1422 1421 1420 1420
1450 1453 1451 1448 1446 1445 1443 1442 1441 1441 1440 1439 1439 1439 1439 1439 1438 1438 1438 1438 1438 1437 1436 1436 1435 1434 1433 1433 1432 1431 1430 1428 1427 1426 1425 1424 1422 1421 1420 1420 1419 1418 1417 1417
1449 1449 1447 1440 1441 1441 1440 1439 1439 1438 1437 1437 1437 1437 1437 1437 1436 1436 1436 1436 1435 1435 1434 1434 1433 1432 1431 1430 1429 1429 1427 1426 1425 1423 1422 1421 1420 1418 1417 1416 1415 1414 1414 1413